Total_Precipitation_Accumulation
0.12 0.18 0.22 0.27 0.23 0.16 0.13 0.13 0.22 0.26 0.36 0.41 0.35 0.40 0.48 0.40 0.35 0.29 0.30 0.27 0.26 0.32 0.41 0.42 0.46 0.50 0.52 0.57 0.60 0.64 0.78 0.93 1.12 1.30 1.17 1.02 0.98 0.92 0.87 0.93 1.03 1.23 1.32 1.37
0.12 0.15 0.19 0.23 0.25 0.19 0.15 0.14 0.12 0.20 0.32 0.35 0.38 0.39 0.48 0.45 0.41 0.37 0.41 0.42 0.39 0.48 0.49 0.50 0.55 0.57 0.53 0.53 0.62 0.70 0.80 0.90 1.01 1.10 1.01 0.88 0.76 0.74 0.77 0.82 0.93 1.05 1.17 1.22
0.21 0.18 0.20 0.26 0.25 0.21 0.18 0.20 0.20 0.30 0.36 0.34 0.40 0.39 0.43 0.54 0.57 0.51 0.36 0.39 0.43 0.42 0.46 0.49 0.55 0.57 0.51 0.49 0.65 0.87 0.92 0.93 0.99 1.07 1.03 0.92 0.77 0.73 0.75 0.81 0.92 0.99 1.03 1.07
0.34 0.36 0.42 0.34 0.31 0.28 0.25 0.30 0.29 0.33 0.34 0.38 0.49 0.45 0.35 0.37 0.44 0.50 0.48 0.43 0.45 0.48 0.46 0.47 0.49 0.53 0.52 0.54 0.67 0.85 0.94 0.98 1.11 1.20 1.15 1.06 0.97 0.92 0.95 0.98 1.01 1.00 0.99 0.99
0.54 0.53 0.43 0.42 0.44 0.44 0.46 0.53 0.48 0.43 0.38 0.40 0.42 0.45 0.42 0.33 0.30 0.38 0.44 0.51 0.51 0.50 0.50 0.49 0.50 0.54 0.58 0.62 0.78 0.99 1.10 1.15 1.19 1.29 1.32 1.29 1.30 1.30 1.28 1.23 1.13 1.09 1.08 1.08
0.62 0.68 0.65 0.61 0.54 0.49 0.60 0.88 0.80 0.66 0.53 0.45 0.50 0.70 0.76 0.53 0.39 0.36 0.39 0.51 0.61 0.60 0.55 0.51 0.51 0.58 0.72 0.84 0.97 1.08 1.22 1.33 1.36 1.48 1.55 1.50 1.51 1.56 1.56 1.56 1.48 1.45 1.35 1.28
0.69 0.78 0.79 0.72 0.55 0.56 0.99 1.23 0.95 0.80 0.69 0.62 0.68 0.70 0.69 0.60 0.50 0.43 0.42 0.48 0.56 0.70 0.62 0.58 0.61 0.73 0.90 0.99 1.06 1.08 1.20 1.32 1.42 1.59 1.72 1.82 1.95 2.00 1.93 1.86 1.81 1.71 1.54 1.46
0.88 1.05 1.04 0.71 0.68 0.90 1.06 0.97 0.96 0.92 0.88 0.87 0.79 0.63 0.56 0.55 0.47 0.45 0.43 0.44 0.43 0.49 0.54 0.57 0.66 0.85 1.04 1.10 1.08 1.10 1.17 1.31 1.50 1.66 1.72 1.79 2.04 2.13 2.08 1.99 1.86 1.74 1.63 1.50
1.03 1.11 0.92 0.76 0.82 0.86 0.94 0.98 0.97 0.99 0.99 0.90 0.80 0.69 0.59 0.56 0.46 0.41 0.39 0.40 0.43 0.46 0.53 0.62 0.74 0.95 1.23 1.30 1.25 1.21 1.29 1.43 1.60 1.72 1.84 1.95 2.03 2.04 2.02 1.99 1.90 1.76 1.67 1.58
1.08 1.05 0.87 0.83 0.85 0.83 0.86 0.88 0.93 0.87 0.83 0.80 0.80 0.72 0.61 0.49 0.41 0.37 0.39 0.38 0.41 0.46 0.55 0.63 0.76 0.96 1.19 1.19 1.17 1.20 1.23 1.31 1.44 1.56 1.61 1.71 1.85 1.82 1.75 1.74 1.77 1.72 1.66 1.60
1.03 1.05 0.99 0.95 0.97 0.89 0.79 0.70 0.63 0.60 0.64 0.72 0.76 0.76 0.63 0.48 0.41 0.34 0.33 0.35 0.39 0.51 0.64 0.70 0.78 0.89 0.96 0.99 1.05 1.12 1.11 1.13 1.21 1.30 1.41 1.54 1.61 1.67 1.62 1.58 1.48 1.49 1.50 1.51
1.07 0.99 0.96 1.07 1.05 0.96 0.76 0.67 0.62 0.57 0.58 0.63 0.65 0.68 0.57 0.50 0.46 0.35 0.31 0.34 0.43 0.53 0.62 0.69 0.81 0.95 0.99 0.99 1.09 1.17 1.15 1.10 1.09 1.13 1.22 1.29 1.38 1.38 1.29 1.17 1.07 1.00 0.98 1.01
0.83 0.78 0.79 0.88 0.86 0.82 0.75 0.72 0.72 0.69 0.66 0.62 0.62 0.56 0.48 0.44 0.40 0.36 0.34 0.36 0.43 0.47 0.52 0.57 0.67 0.85 0.98 1.13 1.20 1.24 1.20 1.15 1.12 1.06 1.09 1.17 1.24 1.30 1.29 1.12 0.94 0.82 0.73 0.70
0.69 0.62 0.69 0.71 0.72 0.69 0.66 0.65 0.63 0.60 0.62 0.62 0.63 0.57 0.50 0.45 0.40 0.38 0.36 0.35 0.35 0.37 0.42 0.51 0.60 0.68 0.80 1.01 1.16 1.21 1.19 1.14 1.10 1.07 1.04 1.08 1.12 1.15 1.23 1.29 1.19 1.00 0.81 0.66
0.82 0.65 0.65 0.59 0.57 0.59 0.54 0.51 0.49 0.46 0.49 0.55 0.55 0.54 0.50 0.47 0.42 0.40 0.38 0.34 0.36 0.40 0.44 0.52 0.61 0.67 0.77 0.91 0.99 1.02 1.02 1.00 0.98 1.00 1.03 1.03 1.06 1.09 1.10 1.17 1.18 1.12 0.98 0.80
0.73 0.58 0.50 0.47 0.47 0.51 0.50 0.48 0.45 0.43 0.41 0.43 0.44 0.41 0.39 0.36 0.35 0.36 0.37 0.39 0.47 0.49 0.54 0.64 0.69 0.70 0.82 0.94 1.02 1.01 0.99 0.93 0.89 0.92 0.98 0.99 1.02 1.05 1.03 1.10 1.11 1.12 1.02 0.86
0.67 0.53 0.44 0.39 0.39 0.41 0.44 0.40 0.35 0.33 0.31 0.30 0.32 0.32 0.29 0.29 0.32 0.33 0.32 0.34 0.42 0.49 0.57 0.71 0.73 0.72 0.83 0.96 1.06 1.05 0.98 0.89 0.78 0.77 0.81 0.88 0.93 0.95 0.95 0.97 0.99 1.01 0.92 0.72
0.53 0.48 0.44 0.40 0.37 0.36 0.37 0.35 0.31 0.30 0.31 0.28 0.27 0.28 0.32 0.37 0.45 0.49 0.48 0.46 0.49 0.47 0.50 0.62 0.68 0.73 0.82 0.91 0.99 1.03 1.00 0.92 0.80 0.69 0.68 0.75 0.81 0.86 0.89 0.89 0.89 0.89 0.81 0.61
0.40 0.42 0.42 0.42 0.40 0.37 0.35 0.34 0.35 0.36 0.34 0.32 0.31 0.34 0.39 0.48 0.58 0.63 0.63 0.66 0.71 0.69 0.61 0.58 0.63 0.66 0.75 0.80 0.85 0.94 0.91 0.85 0.76 0.60 0.59 0.65 0.73 0.82 0.83 0.79 0.81 0.80 0.72 0.60
0.31 0.31 0.32 0.41 0.48 0.50 0.48 0.48 0.47 0.45 0.41 0.40 0.42 0.46 0.51 0.57 0.67 0.75 0.75 0.72 0.72 0.77 0.71 0.62 0.59 0.61 0.66 0.70 0.73 0.79 0.77 0.77 0.74 0.56 0.53 0.66 0.75 0.81 0.79 0.72 0.74 0.72 0.63 0.59
0.28 0.23 0.22 0.25 0.29 0.35 0.38 0.37 0.39 0.43 0.45 0.51 0.62 0.72 0.77 0.74 0.77 0.88 0.96 0.84 0.67 0.69 0.67 0.60 0.54 0.54 0.57 0.68 0.71 0.74 0.71 0.70 0.73 0.62 0.54 0.63 0.73 0.77 0.75 0.69 0.65 0.59 0.54 0.56
0.29 0.26 0.24 0.23 0.23 0.23 0.21 0.22 0.29 0.40 0.48 0.54 0.62 0.75 0.88 0.94 0.97 0.95 0.87 0.83 0.75 0.72 0.65 0.57 0.51 0.48 0.48 0.55 0.67 0.71 0.70 0.69 0.72 0.69 0.62 0.63 0.70 0.74 0.72 0.64 0.58 0.53 0.51 0.53
0.29 0.28 0.24 0.21 0.22 0.22 0.21 0.21 0.24 0.33 0.43 0.51 0.61 0.80 0.97 1.02 1.10 1.23 1.05 0.77 0.70 0.70 0.64 0.54 0.50 0.46 0.43 0.42 0.56 0.64 0.64 0.69 0.71 0.71 0.67 0.62 0.60 0.63 0.64 0.58 0.54 0.53 0.56 0.58
0.32 0.29 0.28 0.26 0.23 0.22 0.24 0.26 0.27 0.33 0.41 0.47 0.56 0.75 0.97 1.13 1.08 0.97 0.92 0.79 0.68 0.61 0.58 0.53 0.44 0.41 0.39 0.36 0.44 0.53 0.59 0.63 0.61 0.59 0.57 0.54 0.58 0.61 0.59 0.56 0.54 0.56 0.60 0.61
0.31 0.30 0.30 0.29 0.30 0.33 0.37 0.41 0.42 0.45 0.53 0.55 0.54 0.61 0.74 0.96 1.11 0.94 0.75 0.69 0.64 0.55 0.53 0.53 0.46 0.40 0.36 0.34 0.36 0.43 0.49 0.53 0.52 0.51 0.49 0.52 0.56 0.55 0.50 0.49 0.51 0.54 0.58 0.61
0.30 0.30 0.29 0.30 0.32 0.39 0.51 0.61 0.68 0.72 0.79 0.84 0.75 0.68 0.70 0.78 0.90 0.89 0.75 0.64 0.58 0.55 0.51 0.51 0.48 0.43 0.38 0.36 0.35 0.38 0.44 0.51 0.53 0.52 0.49 0.53 0.52 0.50 0.50 0.52 0.49 0.49 0.51 0.52
0.30 0.28 0.26 0.29 0.34 0.43 0.58 0.71 0.83 0.92 1.01 1.10 1.04 0.87 0.80 0.77 0.81 0.82 0.75 0.68 0.64 0.62 0.60 0.57 0.54 0.51 0.47 0.43 0.38 0.37 0.44 0.51 0.55 0.56 0.56 0.59 0.61 0.60 0.56 0.53 0.49 0.46 0.45 0.42